| time (UTC) | temp F | wind direction | speed MPH | gust MPH | rain 1hr in | rain 24hr in | rain mn in | humidity % | barometer mb |
| 20260503225035 | 87 | 360 | 1.0 | 0.0 | 0.00 | 0.00 | 0.00 | 13 | 998.1 |
| 20260503224513 | 87 | 360 | 2.0 | 0.0 | 0.00 | 0.00 | 0.00 | 12 | 998.2 |
| 20260503224057 | 87 | 360 | 2.0 | 0.0 | 0.00 | 0.00 | 0.00 | 12 | 998.4 |
| 20260503223535 | 87 | 360 | 2.0 | 0.0 | 0.00 | 0.00 | 0.00 | 12 | 998.4 |
| 20260503223012 | 87 | 360 | 2.0 | 0.0 | 0.00 | 0.00 | 0.00 | 12 | 998.5 |
| 20260503222558 | 87 | 360 | 2.0 | 0.0 | 0.00 | 0.00 | 0.00 | 12 | 998.6 |
| 20260503222034 | 87 | 360 | 2.0 | 0.0 | 0.00 | 0.00 | 0.00 | 12 | 998.6 |
| 20260503221512 | 87 | 360 | 3.0 | 0.0 | 0.00 | 0.00 | 0.00 | 11 | 998.8 |
| 20260503221058 | 87 | 360 | 2.0 | 0.0 | 0.00 | 0.00 | 0.00 | 11 | 999.0 |
| 20260503220542 | 88 | 360 | 1.0 | 0.0 | 0.00 | 0.00 | 0.00 | 11 | 998.9 |
| 20260503220022 | 88 | 360 | 2.0 | 0.0 | 0.00 | 0.00 | 0.00 | 12 | 999.0 |
| 20260503215500 | 88 | 360 | 1.0 | 0.0 | 0.00 | 0.00 | 0.00 | 11 | 998.8 |
| 20260503215042 | 88 | 360 | 1.0 | 0.0 | 0.00 | 0.00 | 0.00 | 12 | 998.9 |
| 20260503214535 | 88 | 360 | 2.0 | 0.0 | 0.00 | 0.00 | 0.00 | 12 | 998.9 |
| 20260503214101 | 87 | 360 | 1.0 | 0.0 | 0.00 | 0.00 | 0.00 | 11 | 999.1 |
| 20260503213550 | 87 | 360 | 1.0 | 0.0 | 0.00 | 0.00 | 0.00 | 11 | 999.3 |
| 20260503213031 | 88 | 360 | 1.0 | 0.0 | 0.00 | 0.00 | 0.00 | 11 | 999.4 |
| 20260503212515 | 88 | 360 | 2.0 | 0.0 | 0.00 | 0.00 | 0.00 | 10 | 999.5 |
| 20260503212055 | 88 | 360 | 5.0 | 0.0 | 0.00 | 0.00 | 0.00 | 10 | 999.6 |
| 20260503211535 | 87 | 360 | 4.0 | 0.0 | 0.00 | 0.00 | 0.00 | 10 | 999.1 |
| 20260503211018 | 88 | 360 | 3.0 | 0.0 | 0.00 | 0.00 | 0.00 | 10 | 999.7 |
| 20260503210601 | 87 | 360 | 3.0 | 0.0 | 0.00 | 0.00 | 0.00 | 10 | 1000.0 |
| 20260503210039 | 88 | 56 | 2.0 | 0.0 | 0.00 | 0.00 | 0.00 | 9 | 999.8 |
| 20260503205516 | 88 | 360 | 2.0 | 0.0 | 0.00 | 0.00 | 0.00 | 10 | 1000.0 |
| 20260503205100 | 87 | 111 | 2.0 | 0.0 | 0.00 | 0.00 | 0.00 | 9 | 1000.4 |
| 20260503204539 | 87 | 360 | 2.0 | 0.0 | 0.00 | 0.00 | 0.00 | 10 | 1000.4 |
| 20260503204022 | 90 | 360 | 2.0 | 0.0 | 0.00 | 0.00 | 0.00 | 9 | 1000.4 |
| 20260503203501 | 88 | 360 | 4.0 | 0.0 | 0.00 | 0.00 | 0.00 | 9 | 1000.7 |
| 20260503203046 | 88 | 360 | 3.0 | 0.0 | 0.00 | 0.00 | 0.00 | 9 | 1000.9 |
| 20260503202528 | 88 | 360 | 2.0 | 0.0 | 0.00 | 0.00 | 0.00 | 9 | 1001.0 |
| 20260503202011 | 88 | 360 | 3.0 | 0.0 | 0.00 | 0.00 | 0.00 | 9 | 1001.2 |
| 20260503201552 | 86 | 360 | 3.0 | 0.0 | 0.00 | 0.00 | 0.00 | 10 | 1001.4 |
| 20260503201038 | 87 | 360 | 2.0 | 0.0 | 0.00 | 0.00 | 0.00 | 9 | 1001.3 |
| 20260503200516 | 87 | 360 | 2.0 | 0.0 | 0.00 | 0.00 | 0.00 | 9 | 1001.5 |
| 20260503200100 | 87 | 360 | 4.0 | 0.0 | 0.00 | 0.00 | 0.00 | 10 | 1001.9 |
| 20260503195538 | 87 | 360 | 5.0 | 0.0 | 0.00 | 0.00 | 0.00 | 10 | 1001.7 |
| 20260503195020 | 86 | 360 | 5.0 | 0.0 | 0.00 | 0.00 | 0.00 | 10 | 1001.7 |
| 20260503194503 | 86 | 360 | 5.0 | 0.0 | 0.00 | 0.00 | 0.00 | 9 | 1001.8 |
| 20260503194047 | 86 | 360 | 5.0 | 0.0 | 0.00 | 0.00 | 0.00 | 9 | 1001.9 |
| 20260503193527 | 86 | 360 | 4.0 | 0.0 | 0.00 | 0.00 | 0.00 | 10 | 1002.0 |
| 20260503193004 | 87 | 360 | 3.0 | 0.0 | 0.00 | 0.00 | 0.00 | 9 | 1002.1 |
| 20260503192547 | 86 | 360 | 3.0 | 0.0 | 0.00 | 0.00 | 0.00 | 10 | 1002.3 |
| 20260503192030 | 86 | 360 | 3.0 | 0.0 | 0.00 | 0.00 | 0.00 | 10 | 1002.4 |
| 20260503191506 | 86 | 360 | 3.0 | 0.0 | 0.00 | 0.00 | 0.00 | 9 | 1002.6 |
| 20260503191054 | 85 | 360 | 4.0 | 0.0 | 0.00 | 0.00 | 0.00 | 9 | 1002.6 |
| 20260503190532 | 86 | 360 | 3.0 | 0.0 | 0.00 | 0.00 | 0.00 | 9 | 1002.7 |
| 20260503190018 | 87 | 360 | 1.0 | 0.0 | 0.00 | 0.00 | 0.00 | 9 | 1002.5 |
| 20260503185556 | 88 | 360 | 2.0 | 0.0 | 0.00 | 0.00 | 0.00 | 8 | 1002.6 |
| 20260503185033 | 86 | 360 | 3.0 | 0.0 | 0.00 | 0.00 | 0.00 | 9 | 1002.8 |
| 20260503184510 | 85 | 360 | 4.0 | 0.0 | 0.00 | 0.00 | 0.00 | 7 | 1003.0 |
| 20260503184054 | 86 | 360 | 4.0 | 0.0 | 0.00 | 0.00 | 0.00 | 7 | 1003.2 |
| 20260503183534 | 86 | 360 | 4.0 | 0.0 | 0.00 | 0.00 | 0.00 | 7 | 1003.3 |
| 20260503183012 | 85 | 360 | 4.0 | 0.0 | 0.00 | 0.00 | 0.00 | 7 | 1003.3 |
| 20260503182552 | 85 | 360 | 4.0 | 0.0 | 0.00 | 0.00 | 0.00 | 7 | 1003.4 |
| 20260503182029 | 85 | 360 | 3.0 | 0.0 | 0.00 | 0.00 | 0.00 | 7 | 1003.4 |
| 20260503181508 | 85 | 360 | 3.0 | 0.0 | 0.00 | 0.00 | 0.00 | 7 | 1003.6 |
| 20260503181050 | 85 | 360 | 3.0 | 0.0 | 0.00 | 0.00 | 0.00 | 7 | 1003.6 |
| 20260503180531 | 85 | 360 | 3.0 | 0.0 | 0.00 | 0.00 | 0.00 | 7 | 1003.7 |
| 20260503180015 | 85 | 360 | 4.0 | 0.0 | 0.00 | 0.00 | 0.00 | 7 | 1003.7 |
| 20260503175600 | 84 | 360 | 3.0 | 0.0 | 0.00 | 0.00 | 0.00 | 7 | 1003.8 |
| 20260503175037 | 85 | 360 | 2.0 | 0.0 | 0.00 | 0.00 | 0.00 | 8 | 1003.8 |
| 20260503174513 | 85 | 360 | 2.0 | 0.0 | 0.00 | 0.00 | 0.00 | 7 | 1003.9 |
| 20260503174058 | 83 | 360 | 3.0 | 0.0 | 0.00 | 0.00 | 0.00 | 8 | 1004.1 |
| 20260503173540 | 83 | 360 | 2.0 | 0.0 | 0.00 | 0.00 | 0.00 | 7 | 1004.2 |
| 20260503173021 | 84 | 360 | 1.0 | 0.0 | 0.00 | 0.00 | 0.00 | 7 | 1004.1 |
| 20260503172603 | 83 | 360 | 2.0 | 0.0 | 0.00 | 0.00 | 0.00 | 9 | 1004.3 |
| 20260503172042 | 83 | 360 | 2.0 | 0.0 | 0.00 | 0.00 | 0.00 | 8 | 1004.3 |
| 20260503171520 | 83 | 109 | 2.0 | 0.0 | 0.00 | 0.00 | 0.00 | 7 | 1004.4 |
| 20260503171005 | 82 | 120 | 2.0 | 0.0 | 0.00 | 0.00 | 0.00 | 8 | 1004.3 |
| 20260503170550 | 82 | 91 | 1.0 | 0.0 | 0.00 | 0.00 | 0.00 | 8 | 1004.3 |
| 20260503151009 | 71 | 360 | 1.0 | 0.0 | 0.00 | 0.00 | 0.00 | 12 | 1005.4 |
| 20260503150549 | 71 | 360 | 1.0 | 0.0 | 0.00 | 0.00 | 0.00 | 13 | 1005.3 |
| 20260503131104 | 59 | 298 | 1.0 | 0.0 | 0.00 | 0.00 | 0.00 | 14 | 1005.2 |
| 20260503130544 | 58 | 272 | 1.0 | 0.0 | 0.00 | 0.00 | 0.00 | 14 | 1005.3 |
| 20260503110537 | 61 | 257 | 1.0 | 0.0 | 0.00 | 0.00 | 0.00 | 12 | 1004.5 |
| 20260503100107 | 63 | 332 | 1.0 | 0.0 | 0.00 | 0.00 | 0.00 | 11 | 1004.1 |
| 20260503081536 | 65 | 293 | 1.0 | 0.0 | 0.00 | 0.00 | 0.00 | 10 | 1004.9 |
| 20260503081012 | 65 | 288 | 1.0 | 0.0 | 0.00 | 0.00 | 0.00 | 10 | 1005.1 |
| 20260503080603 | 65 | 296 | 1.0 | 0.0 | 0.00 | 0.00 | 0.00 | 10 | 1005.2 |
| 20260503072557 | 67 | 301 | 1.0 | 0.0 | 0.00 | 0.00 | 0.00 | 9 | 1005.1 |
| 20260503072037 | 66 | 269 | 1.0 | 0.0 | 0.00 | 0.00 | 0.00 | 10 | 1005.0 |
| 20260503071513 | 66 | 289 | 1.0 | 0.0 | 0.00 | 0.00 | 0.00 | 10 | 1005.2 |
| 20260503071057 | 65 | 272 | 1.0 | 0.0 | 0.00 | 0.00 | 0.00 | 10 | 1005.2 |
| 20260503070530 | 67 | 315 | 1.0 | 0.0 | 0.00 | 0.00 | 0.00 | 10 | 1005.1 |
| 20260503055009 | 67 | 305 | 1.0 | 0.0 | 0.00 | 0.00 | 0.00 | 11 | 1004.9 |
| 20260503054613 | 67 | 306 | 1.0 | 0.0 | 0.00 | 0.00 | 0.00 | 10 | 1004.9 |
| 20260503054048 | 68 | 290 | 1.0 | 0.0 | 0.00 | 0.00 | 0.00 | 10 | 1004.9 |
| 20260503053531 | 68 | 312 | 1.0 | 0.0 | 0.00 | 0.00 | 0.00 | 10 | 1004.7 |
| 20260503053010 | 69 | 311 | 2.0 | 0.0 | 0.00 | 0.00 | 0.00 | 10 | 1004.8 |
| 20260503052558 | 69 | 287 | 2.0 | 0.0 | 0.00 | 0.00 | 0.00 | 9 | 1004.8 |
| 20260503052040 | 69 | 323 | 2.0 | 0.0 | 0.00 | 0.00 | 0.00 | 9 | 1004.8 |
| 20260503051524 | 69 | 291 | 2.0 | 0.0 | 0.00 | 0.00 | 0.00 | 9 | 1004.8 |
| 20260503051003 | 69 | 282 | 2.0 | 0.0 | 0.00 | 0.00 | 0.00 | 9 | 1004.8 |
| 20260503050555 | 69 | 299 | 2.0 | 0.0 | 0.00 | 0.00 | 0.00 | 9 | 1004.7 |
| 20260503050038 | 69 | 293 | 2.0 | 0.0 | 0.00 | 0.00 | 0.00 | 9 | 1004.7 |
| 20260503045523 | 69 | 286 | 2.0 | 0.0 | 0.00 | 0.00 | 0.00 | 9 | 1004.9 |
| 20260503045005 | 69 | 307 | 2.0 | 0.0 | 0.00 | 0.00 | 0.00 | 10 | 1005.1 |
| 20260503044554 | 68 | 308 | 2.0 | 0.0 | 0.00 | 0.00 | 0.00 | 10 | 1005.1 |
| 20260503044032 | 68 | 306 | 2.0 | 0.0 | 0.00 | 0.00 | 0.00 | 11 | 1005.1 |
| 20260503043512 | 68 | 274 | 2.0 | 0.0 | 0.00 | 0.00 | 0.00 | 9 | 1005.0 |
| 20260503043057 | 70 | 325 | 1.0 | 0.0 | 0.00 | 0.00 | 0.00 | 7 | 1004.8 |
| 20260503042539 | 72 | 333 | 1.0 | 0.0 | 0.00 | 0.00 | 0.00 | 6 | 1004.6 |
| 20260503042024 | 72 | 360 | 0.0 | 0.0 | 0.00 | 0.00 | 0.00 | 6 | 1004.5 |
| 20260503041506 | 73 | 360 | 0.0 | 0.0 | 0.00 | 0.00 | 0.00 | 6 | 1004.5 |
| 20260503041057 | 73 | 360 | 0.0 | 0.0 | 0.00 | 0.00 | 0.00 | 6 | 1004.5 |
| 20260503040535 | 73 | 360 | 0.0 | 0.0 | 0.00 | 0.00 | 0.00 | 6 | 1004.3 |
| 20260503040017 | 74 | 360 | 0.0 | 0.0 | 0.00 | 0.00 | 0.00 | 6 | 1004.2 |
| 20260503035504 | 74 | 360 | 0.0 | 0.0 | 0.00 | 0.00 | 0.00 | 6 | 1004.4 |
| 20260503035052 | 74 | 360 | 0.0 | 0.0 | 0.00 | 0.00 | 0.00 | 5 | 1004.3 |
| 20260503034541 | 75 | 360 | 0.0 | 0.0 | 0.00 | 0.00 | 0.00 | 5 | 1004.3 |
| 20260503034018 | 75 | 360 | 0.0 | 0.0 | 0.00 | 0.00 | 0.00 | 5 | 1004.2 |
| 20260503033503 | 75 | 360 | 0.0 | 0.0 | 0.00 | 0.00 | 0.00 | 5 | 1004.1 |
| 20260503033048 | 75 | 119 | 0.0 | 0.0 | 0.00 | 0.00 | 0.00 | 5 | 1004.0 |
| 20260503032531 | 75 | 360 | 0.0 | 0.0 | 0.00 | 0.00 | 0.00 | 5 | 1004.0 |
| 20260503032016 | 76 | 360 | 0.0 | 0.0 | 0.00 | 0.00 | 0.00 | 5 | 1003.9 |
| 20260503031501 | 76 | 360 | 0.0 | 0.0 | 0.00 | 0.00 | 0.00 | 5 | 1003.9 |
| 20260503031044 | 76 | 360 | 0.0 | 0.0 | 0.00 | 0.00 | 0.00 | 5 | 1003.7 |
| 20260503030522 | 77 | 360 | 0.0 | 0.0 | 0.00 | 0.00 | 0.00 | 6 | 1003.7 |
| 20260503030002 | 78 | 360 | 0.0 | 0.0 | 0.00 | 0.00 | 0.00 | 5 | 1004.0 |
| 20260503025547 | 78 | 360 | 0.0 | 0.0 | 0.00 | 0.00 | 0.00 | 5 | 1004.0 |
| 20260503025033 | 79 | 360 | 1.0 | 0.0 | 0.00 | 0.00 | 0.00 | 5 | 1004.0 |
| 20260503024517 | 80 | 105 | 2.0 | 0.0 | 0.00 | 0.00 | 0.00 | 4 | 1003.8 |
| 20260503024101 | 80 | 360 | 1.0 | 0.0 | 0.00 | 0.00 | 0.00 | 4 | 1003.7 |
| 20260503023543 | 80 | 360 | 1.0 | 0.0 | 0.00 | 0.00 | 0.00 | 4 | 1003.7 |
| 20260503023021 | 80 | 127 | 1.0 | 0.0 | 0.00 | 0.00 | 0.00 | 4 | 1003.8 |
| 20260503022502 | 80 | 360 | 1.0 | 0.0 | 0.00 | 0.00 | 0.00 | 4 | 1003.7 |
| 20260503022049 | 81 | 360 | 1.0 | 0.0 | 0.00 | 0.00 | 0.00 | 5 | 1003.7 |
| 20260503021528 | 81 | 360 | 2.0 | 0.0 | 0.00 | 0.00 | 0.00 | 4 | 1003.7 |
| 20260503021007 | 81 | 360 | 2.0 | 0.0 | 0.00 | 0.00 | 0.00 | 4 | 1003.6 |
| 20260503020552 | 81 | 360 | 1.0 | 0.0 | 0.00 | 0.00 | 0.00 | 4 | 1003.6 |
| 20260503020033 | 81 | 360 | 1.0 | 0.0 | 0.00 | 0.00 | 0.00 | 4 | 1003.5 |
| 20260503015516 | 82 | 360 | 2.0 | 0.0 | 0.00 | 0.00 | 0.00 | 4 | 1004.2 |
| 20260503015100 | 82 | 360 | 2.0 | 0.0 | 0.00 | 0.00 | 0.00 | 4 | 1004.1 |
| 20260503014546 | 82 | 360 | 1.0 | 0.0 | 0.00 | 0.00 | 0.00 | 4 | 1004.2 |
| 20260503014022 | 82 | 360 | 1.0 | 0.0 | 0.00 | 0.00 | 0.00 | 5 | 1004.2 |
| 20260503013503 | 82 | 360 | 1.0 | 0.0 | 0.00 | 0.00 | 0.00 | 4 | 1004.3 |
| 20260503013049 | 83 | 360 | 1.0 | 0.0 | 0.00 | 0.00 | 0.00 | 4 | 1004.3 |
| 20260503012525 | 83 | 360 | 0.0 | 0.0 | 0.00 | 0.00 | 0.00 | 5 | 1004.3 |
| 20260503012004 | 84 | 360 | 1.0 | 0.0 | 0.00 | 0.00 | 0.00 | 5 | 1004.1 |
| 20260503011548 | 84 | 360 | 1.0 | 0.0 | 0.00 | 0.00 | 0.00 | 4 | 1004.3 |
| 20260503011025 | 84 | 128 | 1.0 | 0.0 | 0.00 | 0.00 | 0.00 | 4 | 1004.1 |
| 20260503010502 | 83 | 360 | 2.0 | 0.0 | 0.00 | 0.00 | 0.00 | 4 | 1004.4 |
| 20260503010050 | 83 | 360 | 1.0 | 0.0 | 0.00 | 0.00 | 0.00 | 4 | 1004.4 |
| 20260503005526 | 84 | 360 | 0.0 | 0.0 | 0.00 | 0.00 | 0.00 | 4 | 1004.7 |
| 20260503005004 | 84 | 360 | 1.0 | 0.0 | 0.00 | 0.00 | 0.00 | 5 | 1004.8 |
| 20260503004553 | 84 | 360 | 1.0 | 0.0 | 0.00 | 0.00 | 0.00 | 4 | 1004.9 |
| 20260503004031 | 85 | 360 | 0.0 | 0.0 | 0.00 | 0.00 | 0.00 | 4 | 1004.8 |
| 20260503003511 | 85 | 360 | 2.0 | 0.0 | 0.00 | 0.00 | 0.00 | 5 | 1004.8 |
| 20260503003057 | 84 | 360 | 3.0 | 0.0 | 0.00 | 0.00 | 0.00 | 5 | 1005.0 |
| 20260503002535 | 83 | 360 | 2.0 | 0.0 | 0.00 | 0.00 | 0.00 | 4 | 1005.1 |
| 20260503002017 | 83 | 360 | 2.0 | 0.0 | 0.00 | 0.00 | 0.00 | 4 | 1005.1 |
| 20260503001602 | 84 | 360 | 2.0 | 0.0 | 0.00 | 0.00 | 0.00 | 5 | 1005.2 |
| 20260503001040 | 85 | 360 | 2.0 | 0.0 | 0.00 | 0.00 | 0.00 | 4 | 1005.0 |
| 20260503000523 | 85 | 82 | 2.0 | 0.0 | 0.00 | 0.00 | 0.00 | 5 | 1005.1 |
| 20260503000002 | 85 | 360 | 1.0 | 0.0 | 0.00 | 0.00 | 0.00 | 4 | 1004.6 |
| 20260502235553 | 85 | 360 | 1.0 | 0.0 | 0.00 | 0.00 | 0.00 | 4 | 1004.6 |
| 20260502235031 | 85 | 360 | 1.0 | 0.0 | 0.00 | 0.00 | 0.00 | 5 | 1004.4 |
| 20260502234520 | 86 | 115 | 1.0 | 0.0 | 0.00 | 0.00 | 0.00 | 5 | 1004.5 |
| 20260502234103 | 86 | 93 | 1.0 | 0.0 | 0.00 | 0.00 | 0.00 | 4 | 1004.5 |
| 20260502233541 | 87 | 84 | 1.0 | 0.0 | 0.00 | 0.00 | 0.00 | 4 | 1004.4 |
| 20260502233030 | 87 | 119 | 1.0 | 0.0 | 0.00 | 0.00 | 0.00 | 5 | 1004.7 |
| 20260502232501 | 86 | 42 | 1.0 | 0.0 | 0.00 | 0.00 | 0.00 | 4 | 1004.7 |
| 20260502232047 | 86 | 79 | 1.0 | 0.0 | 0.00 | 0.00 | 0.00 | 5 | 1004.6 |
| 20260502231526 | 87 | 186 | 1.0 | 0.0 | 0.00 | 0.00 | 0.00 | 4 | 1004.5 |
| 20260502231003 | 87 | 63 | 1.0 | 0.0 | 0.00 | 0.00 | 0.00 | 4 | 1004.7 |
| 20260502230546 | 87 | 38 | 1.0 | 0.0 | 0.00 | 0.00 | 0.00 | 5 | 1004.6 |
| 20260502230035 | 86 | 241 | 1.0 | 0.0 | 0.00 | 0.00 | 0.00 | 5 | 1004.8 |
| 20260502225514 | 86 | 107 | 1.0 | 0.0 | 0.00 | 0.00 | 0.00 | 4 | 1004.7 |